Weather History for PHMK - July, 2012

Change the Weather History Date:

Saturday, July 7, 2012

  Actual Average Record
Temperature  
Mean Temperature 76 °F -  
Max Temperature 80 °F 84 °F 89 °F (1978)
Min Temperature 71 °F 70 °F 62 °F (1981)
Cooling Degree Days 10    
Growing Degree Days 26 (Base 50)    
Moisture  
Dew Point 65 °F    
Average Humidity 75    
Maximum Humidity 87    
Minimum Humidity 58    
Precipitation  
Precipitation 0.00 in - - ()
Sea Level Pressure  
Sea Level Pressure 30.08 in    
Wind  
Wind Speed 16 mph (NE)    
Max Wind Speed 22 mph    
Max Gust Speed 33 mph    
Visibility 9 miles    
Events Rain    
Averages and records for this station are not official NWS values.
T = Trace of Precipitation, MM = Missing Value Source: NWS Daily Summary

Daily Weather History Graph

Daily Weather History Graph

Search for Another Location

Airport or City:

Trip Planner

Search our weather history database for the weather conditions in past years. The results will help you decide how hot, cold, wet, or windy it might be!

Date:

Astronomy

Jul. 07, 2012 Rise Set
Actual Time 5:52 AM HST 7:14 PM HST
Civil Twilight 5:28 AM HST 7:38 PM HST
Nautical Twilight 4:58 AM HST 8:08 PM HST
Astronomical Twilight 4:28 AM HST 8:38 PM HST
Moon 10:22 PM HST (7/7) 9:50 AM HST (7/7)
Length of Visible Light 14h 10m
Length of Day
13h 21m
Waning Gibbous, 80% of the Moon is Illuminated
Jul 7
Waning Gibbous
Jul 10
Last Quarter
Jul 18
New
Jul 25
First Quarter
Aug 1
Full

Hourly Weather History & Observations

Time (HST) Temp. Heat Index Dew Point Humidity Pressure Visibility Wind Dir Wind Speed Gust Speed Precip Events Conditions
12:54 AM 71.1 °F - 66.0 °F 84% 30.09 in 7.0 mi NNE 11.5 mph 24.2 mph 0.00 in Rain Light Rain
1:54 AM 72.0 °F - 66.0 °F 81% 30.07 in 10.0 mi NE 15.0 mph 25.3 mph 0.00 in   Unknown
2:54 AM 71.1 °F - 66.9 °F 87% 30.06 in 10.0 mi NE 15.0 mph 26.5 mph 0.00 in   Unknown
3:54 AM 71.1 °F - 64.9 °F 81% 30.06 in 10.0 mi NE 15.0 mph 26.5 mph 0.00 in Rain Light Rain
4:54 AM 72.0 °F - 64.9 °F 78% 30.05 in 10.0 mi NE 17.3 mph 25.3 mph 0.00 in   Scattered Clouds
5:54 AM 72.0 °F - 64.9 °F 78% 30.06 in 10.0 mi NE 16.1 mph 21.9 mph 0.00 in   Mostly Cloudy
6:54 AM 71.1 °F - 64.9 °F 81% 30.08 in 10.0 mi NE 17.3 mph 29.9 mph 0.00 in   Mostly Cloudy
7:54 AM 72.0 °F - 66.0 °F 81% 30.09 in 9.0 mi NE 11.5 mph 20.7 mph 0.00 in Rain Light Rain
8:54 AM 73.0 °F - 66.0 °F 79% 30.09 in 7.0 mi NE 16.1 mph 27.6 mph 0.00 in Rain Light Rain
9:54 AM 77.0 °F - 66.0 °F 69% 30.09 in 10.0 mi NE 19.6 mph 29.9 mph 0.00 in   Scattered Clouds
10:54 AM 80.1 °F 81.7 °F 64.0 °F 58% 30.09 in 10.0 mi NE 17.3 mph 31.1 mph N/A   Scattered Clouds
11:40 AM 75.2 °F - 66.2 °F 73% 30.09 in 5.0 mi NE 17.3 mph 27.6 mph 0.00 in Rain Rain
11:54 AM 75.0 °F - 68.0 °F 79% 30.10 in 10.0 mi ENE 19.6 mph 26.5 mph 0.00 in Rain Light Rain
12:54 PM 75.9 °F - 64.9 °F 69% 30.09 in 10.0 mi NE 16.1 mph 33.4 mph 0.00 in Rain Light Rain
1:54 PM 79.0 °F - 64.0 °F 60% 30.06 in 10.0 mi NE 21.9 mph 31.1 mph 0.00 in   Scattered Clouds
2:54 PM 78.1 °F - 64.0 °F 62% 30.05 in 10.0 mi NE 19.6 mph 27.6 mph N/A   Scattered Clouds
3:54 PM 75.0 °F - 66.9 °F 76% 30.05 in 8.0 mi NE 13.8 mph 24.2 mph 0.00 in Rain Light Rain
4:54 PM 75.9 °F - 64.0 °F 67% 30.04 in 10.0 mi NE 20.7 mph 32.2 mph 0.00 in   Scattered Clouds
5:54 PM 75.0 °F - 64.9 °F 71% 30.05 in 10.0 mi NE 17.3 mph 32.2 mph N/A   Scattered Clouds
6:54 PM 73.0 °F - 64.9 °F 76% 30.07 in 10.0 mi NE 16.1 mph 28.8 mph N/A   Partly Cloudy
7:54 PM 73.0 °F - 64.9 °F 76% 30.08 in 10.0 mi NE 17.3 mph 25.3 mph N/A   Mostly Cloudy
8:54 PM 73.0 °F - 64.0 °F 73% 30.09 in 10.0 mi ENE 16.1 mph 25.3 mph N/A   Partly Cloudy
9:54 PM 73.0 °F - 64.0 °F 73% 30.10 in 10.0 mi NE 19.6 mph 25.3 mph N/A   Scattered Clouds
10:54 PM 73.0 °F - 64.9 °F 76% 30.11 in 10.0 mi ENE 12.7 mph 26.5 mph 0.00 in   Mostly Cloudy
11:54 PM 73.0 °F - 64.9 °F 76% 30.10 in 10.0 mi NE 15.0 mph 24.2 mph N/A   Overcast